When you browse on this site, cookies collect data to enhance your experience and personalize the content and advertising you see.
Visit our Privacy Policy to learn more. By continuing to use the site, you agree to this use of cookies and data.
  • In Czech Republic
  • List of Countries
  • For 7 days
  • Water Temperature
  • Weather Map
  • Weather Widgets
  • user-avatar
    Login

    Hourly Weather Le Grand-Quevilly

    Today, 29 May, Friday

    Time Temperature Precipitation Wind Pressure Humidity
    00:00 +11°C° 0 mm 4 mps 764 mmHg 73%
    01:00 +10°C° 0 mm 4 mps 764 mmHg 75%
    02:00 +10°C° 0 mm 4 mps 764 mmHg 77%
    03:00 +8°C° 0 mm 4 mps 764 mmHg 79%
    04:00 +10°C° 0 mm 4 mps 764 mmHg 79%
    05:00 +10°C° 0 mm 4 mps 764 mmHg 78%
    06:00 +11°C° 0 mm 4 mps 764 mmHg 78%
    07:00 +13°C° 0 mm 4 mps 764 mmHg 74%
    08:00 +15°C° 0 mm 4 mps 764 mmHg 70%
    09:00 +18°C° 0 mm 4 mps 764 mmHg 66%
    10:00 +19°C° 0 mm 4 mps 764 mmHg 63%
    11:00 +20°C° 0 mm 4 mps 763 mmHg 60%
    12:00 +20°C° 0 mm 5 mps 763 mmHg 57%
    13:00 +21°C° 0 mm 5 mps 763 mmHg 58%
    14:00 +21°C° 0 mm 4 mps 762 mmHg 58%
    15:00 +21°C° 0 mm 4 mps 762 mmHg 59%
    16:00 +21°C° 0 mm 4 mps 761 mmHg 64%
    17:00 +20°C° 0 mm 4 mps 761 mmHg 69%
    18:00 +19°C° 0 mm 3 mps 761 mmHg 75%
    19:00 +17°C° 0 mm 3 mps 761 mmHg 78%
    20:00 +16°C° 0 mm 3 mps 761 mmHg 81%
    21:00 +13°C° 0 mm 3 mps 761 mmHg 84%
    22:00 +12°C° 0 mm 3 mps 761 mmHg 85%
    23:00 +11°C° 0 mm 3 mps 761 mmHg 87%

    Tomorrow, 30 May, Saturday

    Time Temperature Precipitation Wind Pressure Humidity
    00:00 +11°C° 0 mm 3 mps 761 mmHg 88%
    01:00 +10°C° 0 mm 3 mps 760 mmHg 88%
    02:00 +10°C° 0 mm 3 mps 760 mmHg 88%
    03:00 +10°C° 0 mm 3 mps 760 mmHg 88%
    04:00 +10°C° 0 mm 3 mps 760 mmHg 85%
    05:00 +11°C° 0 mm 3 mps 760 mmHg 82%
    06:00 +12°C° 0 mm 3 mps 760 mmHg 79%
    07:00 +14°C° 0 mm 3 mps 760 mmHg 74%
    08:00 +17°C° 0 mm 3 mps 760 mmHg 69%
    09:00 +19°C° 0 mm 3 mps 760 mmHg 64%
    10:00 +20°C° 0 mm 4 mps 760 mmHg 61%
    11:00 +21°C° 0 mm 4 mps 760 mmHg 58%
    12:00 +21°C° 0 mm 5 mps 760 mmHg 55%
    13:00 +21°C° 0 mm 5 mps 759 mmHg 56%
    14:00 +21°C° 0 mm 5 mps 759 mmHg 57%
    15:00 +21°C° 0 mm 5 mps 759 mmHg 57%
    16:00 +21°C° 0 mm 4 mps 759 mmHg 63%
    17:00 +20°C° 0 mm 3 mps 759 mmHg 68%
    18:00 +20°C° 0 mm 3 mps 758 mmHg 73%
    19:00 +18°C° 0 mm 3 mps 759 mmHg 76%
    20:00 +16°C° 0 mm 3 mps 759 mmHg 79%
    21:00 +13°C° 0 mm 3 mps 759 mmHg 81%
    22:00 +13°C° 0 mm 3 mps 759 mmHg 84%
    23:00 +12°C° 0 mm 3 mps 759 mmHg 86%

    Day after tomorrow, 31 May, Sunday

    Time Temperature Precipitation Wind Pressure Humidity
    00:00 +12°C° 0 mm 3 mps 759 mmHg 88%
    01:00 +11°C° 0 mm 3 mps 759 mmHg 88%
    02:00 +10°C° 0 mm 3 mps 759 mmHg 88%
    03:00 +10°C° 0 mm 3 mps 759 mmHg 88%
    04:00 +11°C° 0 mm 3 mps 759 mmHg 84%
    05:00 +11°C° 0 mm 4 mps 759 mmHg 80%
    06:00 +12°C° 0 mm 4 mps 759 mmHg 76%
    07:00 +14°C° 0 mm 5 mps 759 mmHg 71%
    08:00 +15°C° 0 mm 5 mps 760 mmHg 66%
    09:00 +17°C° 0 mm 5 mps 760 mmHg 60%
    10:00 +19°C° 0 mm 6 mps 760 mmHg 59%
    11:00 +20°C° 0 mm 6 mps 760 mmHg 58%
    12:00 +20°C° 0 mm 6 mps 760 mmHg 57%
    13:00 +21°C° 0 mm 6 mps 759 mmHg 58%
    14:00 +21°C° 0 mm 6 mps 759 mmHg 59%
    15:00 +21°C° 0 mm 5 mps 759 mmHg 59%
    16:00 +20°C° 0 mm 5 mps 759 mmHg 64%
    17:00 +20°C° 0 mm 4 mps 759 mmHg 69%
    18:00 +19°C° 0 mm 4 mps 759 mmHg 75%
    19:00 +17°C° 0 mm 4 mps 759 mmHg 76%
    20:00 +14°C° 0 mm 4 mps 759 mmHg 77%
    21:00 +12°C° 0 mm 4 mps 759 mmHg 78%
    22:00 +12°C° 0 mm 3 mps 759 mmHg 79%
    23:00 +11°C° 0 mm 3 mps 759 mmHg 80%

    1 June, Monday

    Time Temperature Precipitation Wind Pressure Humidity
    00:00 +10°C° 0 mm 3 mps 759 mmHg 81%
    01:00 +10°C° 0 mm 3 mps 759 mmHg 83%
    02:00 +10°C° 0 mm 3 mps 758 mmHg 85%
    03:00 +9°C° 0 mm 3 mps 758 mmHg 87%
    04:00 +10°C° 0 mm 3 mps 758 mmHg 85%
    05:00 +11°C° 0 mm 3 mps 758 mmHg 82%
    06:00 +12°C° 0 mm 3 mps 758 mmHg 80%
    07:00 +14°C° 0 mm 3 mps 758 mmHg 74%
    08:00 +17°C° 0 mm 4 mps 758 mmHg 69%
    09:00 +19°C° 0 mm 4 mps 758 mmHg 64%
    10:00 +20°C° 0 mm 5 mps 758 mmHg 62%
    11:00 +21°C° 0 mm 5 mps 758 mmHg 61%
    12:00 +22°C° 0 mm 5 mps 757 mmHg 59%
    13:00 +22°C° 0.1 mm 5 mps 757 mmHg 61%
    14:00 +22°C° 0.1 mm 5 mps 757 mmHg 63%
    15:00 +22°C° 0.1 mm 5 mps 757 mmHg 65%
    16:00 +21°C° 0.3 mm 5 mps 756 mmHg 71%
    17:00 +20°C° 0.3 mm 5 mps 756 mmHg 76%
    18:00 +19°C° 0.3 mm 4 mps 756 mmHg 82%
    19:00 +17°C° 0.1 mm 4 mps 756 mmHg 84%
    20:00 +15°C° 0.1 mm 4 mps 756 mmHg 87%
    21:00 +14°C° 0.1 mm 4 mps 756 mmHg 89%
    22:00 +13°C° 0 mm 4 mps 756 mmHg 88%
    23:00 +13°C° 0 mm 4 mps 756 mmHg 87%

    2 June, Tuesday

    Time Temperature Precipitation Wind Pressure Humidity
    00:00 +12°C° 0 mm 4 mps 755 mmHg 86%
    01:00 +12°C° 0.2 mm 4 mps 755 mmHg 88%
    02:00 +12°C° 0.2 mm 4 mps 754 mmHg 90%
    03:00 +12°C° 0.2 mm 4 mps 754 mmHg 92%
    04:00 +13°C° 0 mm 4 mps 754 mmHg 91%
    05:00 +14°C° 0 mm 4 mps 754 mmHg 90%
    06:00 +14°C° 0 mm 4 mps 753 mmHg 90%
    07:00 +17°C° 0.1 mm 4 mps 753 mmHg 86%
    08:00 +19°C° 0.1 mm 4 mps 753 mmHg 82%
    09:00 +20°C° 0.1 mm 4 mps 753 mmHg 78%
    10:00 +21°C° 1.1 mm 4 mps 753 mmHg 77%
    11:00 +21°C° 1.1 mm 4 mps 753 mmHg 75%
    12:00 +22°C° 1.1 mm 4 mps 752 mmHg 74%
    13:00 +22°C° 1.1 mm 4 mps 752 mmHg 75%
    14:00 +22°C° 1.1 mm 4 mps 751 mmHg 75%
    15:00 +22°C° 1.1 mm 4 mps 751 mmHg 76%
    16:00 +21°C° 0.8 mm 4 mps 750 mmHg 78%
    17:00 +20°C° 0.8 mm 4 mps 750 mmHg 81%
    18:00 +19°C° 0.8 mm 4 mps 750 mmHg 84%
    19:00 +18°C° 0 mm 4 mps 749 mmHg 86%
    20:00 +16°C° 0 mm 3 mps 749 mmHg 89%
    21:00 +14°C° 0 mm 3 mps 749 mmHg 91%
    22:00 +13°C° 0 mm 3 mps 749 mmHg 92%
    23:00 +14°C° 0 mm 2 mps 748 mmHg 93%

    3 June, Wednesday

    Time Temperature Precipitation Wind Pressure Humidity
    00:00 +14°C° 0 mm 2 mps 748 mmHg 94%
    01:00 +13°C° 0.1 mm 2 mps 747 mmHg 94%
    02:00 +13°C° 0.1 mm 2 mps 747 mmHg 94%
    03:00 +13°C° 0.1 mm 2 mps 746 mmHg 94%
    04:00 +14°C° 0.2 mm 2 mps 746 mmHg 94%
    05:00 +14°C° 0.2 mm 2 mps 746 mmHg 94%
    06:00 +15°C° 0.2 mm 2 mps 746 mmHg 93%
    07:00 +16°C° 0.1 mm 2 mps 746 mmHg 90%
    08:00 +18°C° 0.1 mm 2 mps 746 mmHg 86%
    09:00 +19°C° 0.1 mm 2 mps 746 mmHg 82%
    10:00 +20°C° 0.1 mm 2 mps 746 mmHg 80%
    11:00 +20°C° 0.1 mm 2 mps 746 mmHg 77%
    12:00 +21°C° 0.1 mm 2 mps 746 mmHg 75%
    13:00 +21°C° 0.2 mm 2 mps 746 mmHg 74%
    14:00 +23°C° 0.2 mm 2 mps 746 mmHg 74%
    15:00 +23°C° 0.2 mm 2 mps 746 mmHg 73%
    16:00 +21°C° 0.2 mm 2 mps 746 mmHg 77%
    17:00 +20°C° 0.2 mm 2 mps 746 mmHg 81%
    18:00 +20°C° 0.2 mm 2 mps 746 mmHg 85%
    19:00 +18°C° 0.2 mm 2 mps 746 mmHg 88%
    20:00 +16°C° 0.2 mm 2 mps 747 mmHg 91%
    21:00 +15°C° 0.2 mm 1 mps 747 mmHg 95%
    22:00 +14°C° 0 mm 1 mps 747 mmHg 95%
    23:00 +14°C° 0 mm 1 mps 747 mmHg 94%
    Show more